Powrót do katalogu

COSMOS 2251 DEB

AktywnyLEO
NORAD 33920·DEBRIS·🇷🇺 Russia

Wystrzelony Jun 16, 1993 z Plesetsk Cosmodrome

Loading…

Następne Przeloty (najbliższe 24 godziny)

TLE

ŚwieżeSource: Space-Track

Epoka: Sep 14, 2026, 02:14 UTC

1 33920U 93036DZ  26257.09342235  .00003878  00000-0  77678-3 0  9992
2 33920  74.0582 133.4656 0032732  75.3904 285.0888 14.61782272921346

Śledź COSMOS 2251 DEB w czasie rzeczywistym z AllMySat

Download on the App Store